SL-16 DEB, 26968

Orbit data source: Space-Track

SL-16 DEB, 26968 is space debris in LEO originally from a launch on Fri, 26 Mar 1993 UTC launched from the Tyuratam Missile And Space Complex (TTMTR). Debris objects in space refer to the collection of defunct objects orbiting the Earth. Examples of debris include non-operational satellites, rocket bodies, and fragments generated from explosions, collisions, or faulty payload assembly.

Loading next visibility...
Identifier
26968, 1993-016AJ
Orbit
LEO
Country
Flag of CISCIS
Related business
Manufacturer
Unknown
Mission
Spacecraft
Bus & Motor
Unknown
Mass
Unknown
Launch date (UTC)
1993-03-26 (32 years ago)
Launch vehicle
Unknown
Launch site
Tyuratam Missile And Space Complex (TTMTR)
Object type
Payload
Rocket body
Debris
Shape & HBR
Unknown
Radar Cross Section
Small (<0.1 m²)

Expand to show TLE details & history
Last TLE update: 1 day ago

TLE from 1 day ago
0 SL-16 DEB
1 26968U 93016AJ  25258.12714264  .00001841  00000-0  57578-3 0  9998
2 26968  70.9955 147.8073 0009397 300.3797 208.4301 14.42007993689623
Epoch: 2025-09-15T03:03Z
TLE epoch observation values (Epoch: 2025-09-15T03:03:05.124Z)
Latitude
29.42427°
Longitude
-83.4413°
Altitude
760.932 km
Speed
7.474 km/s
True Right ascension
21h 06m 39s
True Declination
29° 16' 39"
Sunlit
Object was in full shadow at epoch
Visualization orbit readout
Latitude
Unknown
Longitude
Unknown
Altitude
Unknown
Speed
Unknown
Apparent Right ascension
Unknown
Apparent Declination
Unknown
Sunlit
N/A
Visualization observer readout
Local Sidereal Time
19:40:22
Azimuth
Unknown
Elevation
Unknown
Doppler factor
Unknown
Orbital elements
Apogee altitude
756.469 km
Perigee altitude
743.073 km
Semi-major axis
7,127.908 km
Eccentricity
0.00094
Inclination
70.9955°
RAAN
147.8073°
Arg. of periapsis
300.3797°
True anomaly
208.37889°
Mean anomaly
208.4301°
Eccentric anomaly
208.40449°
Mean motion
3.60662 °/min
Orbital period
99.82 mins
BSTAR
0.00057578
Loading maneuver chart data...
Computing Atmospheric mass density...
Loading historical data...
Loading historical data...
Loading historical data...
Loading historical data...
Loading historical data...
Loading historical data...
Loading historical data...

Documentation

Showing up to 5 results
|